Location: Luxembourg
(49.6117°N, 6.1300°E)
Time: 01:40:05
(UTC+01:00)

N. Korean satellite - Pass Details

Date: 08 December 2021
Orbit: 446 x 492 km, 97.3° (Epoch: 16 January)

Event Time Altitude Azimuth Distance (km) Brightness Sun altitude
Rises 17:34:05 0° 191° (S) 2,514 10.7 -9.0°
Reaches altitude 10° 17:36:21 10° 204° (SSW) 1,632 10.0 -9.4°
Maximum altitude 17:39:24 28° 264° (W) 920 8.9 -9.8°
Drops below altitude 10° 17:42:26 10° 325° (NW) 1,621 9.4 -10.3°
Sets 17:44:40 0° 338° (NNW) 2,493 10.2 -10.6°
